Dewpoint
29 32 35 37 38 33 31 32 33 27 38 53 52 52 56 54 54 55 58 59 60 59 57 58 57 58 60 62 62 65 65 63 61 61 61 61 62 62 62 63 63 64 63 64 64 63 63 63 64 65 67 68 69 71 71 72 72 73 73 74 74 74 75 74 73 73 72 72 73 73 71 70 71 73 73 73 73 72 73 75 75 76 74 76 76 76
29 32 36 34 34 30 28 27 26 25 49 52 52 52 51 54 50 55 58 60 61 58 58 60 59 57 59 62 63 63 64 63 61 60 60 60 61 62 63 63 63 64 63 64 64 63 64 63 64 65 67 69 69 71 71 71 72 73 72 73 73 74 74 74 73 74 73 73 72 71 70 70 70 73 72 73 73 72 73 77 77 76 76 76 77 77
30 29 34 33 31 31 27 25 24 23 28 43 51 51 51 52 56 57 58 61 63 58 59 59 58 58 59 61 62 62 62 65 65 61 60 61 61 62 63 63 64 63 63 63 63 63 63 64 64 65 67 68 68 70 70 71 72 73 73 74 75 74 74 74 74 74 73 73 73 72 72 71 70 72 73 71 73 74 73 74 76 77 77 77 77 78
29 32 35 30 29 27 23 23 23 20 19 28 39 49 49 52 52 53 57 60 60 59 57 58 57 58 59 62 63 63 62 64 66 64 63 62 62 62 62 63 63 63 63 62 63 62 63 64 65 66 66 68 68 70 70 71 72 72 74 74 75 75 74 74 74 74 73 73 74 75 74 74 73 72 74 75 75 74 74 73 75 76 76 76 76 77
28 28 30 27 27 27 26 19 19 18 18 16 26 26 49 55 55 54 57 58 57 57 58 56 56 56 57 58 61 64 65 64 66 65 65 64 63 63 63 62 63 63 63 62 62 62 62 64 65 66 67 67 68 69 70 70 70 70 72 74 75 75 74 74 74 74 75 75 74 74 74 74 74 74 73 73 72 73 74 73 75 74 76 76 76 78
28 27 27 26 24 24 24 20 19 20 20 15 15 31 40 53 54 57 57 56 55 54 56 55 52 53 56 57 58 60 64 63 64 65 63 63 63 63 62 62 63 64 64 63 62 62 62 64 65 66 67 67 67 68 69 69 70 71 72 74 75 75 74 74 75 75 74 74 73 73 73 72 72 72 72 71 71 71 72 71 72 74 75 75 76 77
30 28 27 26 25 23 23 22 21 21 19 20 22 17 37 46 55 56 55 54 51 49 54 56 48 47 55 56 58 59 60 61 63 62 63 63 64 62 62 61 62 62 62 63 62 62 62 64 65 66 66 66 66 68 69 69 70 71 73 74 74 75 74 74 75 75 74 74 74 73 72 71 71 71 72 74 72 71 72 73 74 75 75 76 75 75
27 27 26 26 25 24 23 23 23 19 17 19 30 13 43 52 54 55 54 51 50 54 56 56 52 48 48 52 58 59 60 60 62 62 63 63 62 62 62 61 62 62 61 62 62 63 63 64 64 65 66 66 65 67 68 69 70 72 74 74 74 75 74 74 75 75 75 74 74 74 73 72 72 70 72 74 75 74 75 74 74 74 75 76 76 75
26 25 25 25 25 24 25 24 23 19 19 21 15 25 46 49 53 54 52 51 53 50 51 54 52 50 47 52 57 58 58 59 60 61 62 64 63 63 62 61 62 62 62 61 61 62 62 63 64 65 65 65 65 66 68 69 70 71 73 74 75 75 75 75 75 75 75 75 74 74 73 73 73 73 73 74 74 75 76 75 75 76 75 76 77 77
26 27 26 25 26 24 25 25 21 17 20 24 44 53 54 55 55 53 50 51 52 49 47 51 52 47 46 52 55 58 58 57 58 60 63 63 63 62 62 63 62 62 62 61 62 62 63 63 64 64 65 65 65 66 68 68 69 70 72 73 74 74 74 75 75 75 75 75 75 74 73 73 73 74 74 73 74 75 76 75 76 76 77 75 75 76
26 32 29 25 25 26 25 25 19 18 35 34 53 52 52 52 52 51 50 52 51 48 46 50 51 48 44 51 53 55 55 56 58 60 63 64 64 63 63 63 63 63 62 61 62 63 63 63 64 64 64 65 65 66 67 68 69 70 71 72 73 74 74 75 75 75 75 75 74 74 74 73 73 74 73 73 74 75 75 75 74 75 76 76 75 74
24 26 30 26 29 24 24 23 22 19 41 48 47 49 49 49 50 50 51 52 47 42 46 50 51 50 44 46 53 56 57 57 58 58 60 63 63 63 63 62 62 63 62 61 61 62 63 64 64 64 65 65 66 66 67 67 69 70 71 72 73 74 74 74 75 74 74 73 74 73 74 73 74 74 72 73 73 74 74 74 74 75 75 76 75 76
24 25 23 23 36 23 22 21 20 21 20 28 44 42 36 46 48 43 46 44 42 39 44 48 51 50 48 49 50 54 57 57 59 59 61 63 64 64 62 63 62 63 62 61 62 62 62 63 64 64 65 67 67 67 67 67 68 69 71 72 72 73 74 74 74 74 74 74 74 73 73 74 75 74 74 73 73 74 74 74 74 76 75 76 75 75
21 21 21 22 25 28 22 19 18 19 20 20 40 40 34 43 40 40 41 43 41 42 42 47 53 48 49 49 52 51 55 58 58 59 61 62 64 65 63 63 62 63 63 61 61 61 63 63 63 64 65 66 66 66 66 67 68 69 70 72 72 73 74 74 74 74 74 74 74 74 74 74 74 74 74 73 72 72 74 75 74 72 72 74 73 73
18 17 17 21 19 26 23 21 19 19 19 20 33 38 30 41 36 37 39 34 31 41 44 50 46 46 44 47 54 55 55 55 58 59 61 62 64 66 64 63 62 63 64 63 61 61 61 62 64 64 65 65 66 65 67 67 69 71 70 72 72 73 73 74 74 74 74 74 74 74 74 74 74 73 73 73 73 74 73 72 72 75 73 72 73 74
18 18 19 21 23 24 22 22 20 18 18 20 33 43 36 34 38 29 39 35 40 43 45 48 45 47 46 53 57 58 57 56 56 58 61 62 64 66 66 64 62 62 63 63 61 61 62 63 64 64 65 65 66 67 67 68 70 70 71 72 72 73 73 73 74 74 74 74 74 75 75 74 74 75 73 75 75 75 73 74 74 75 76 74 74 76
22 16 20 23 23 22 21 22 20 19 18 19 33 31 32 45 40 42 42 40 42 40 41 48 45 46 49 51 57 58 55 55 56 58 60 62 64 65 65 64 63 64 65 65 62 61 63 63 63 64 64 64 65 66 67 69 70 71 71 71 72 73 73 73 74 73 73 74 74 74 74 73 73 73 72 70 72 70 72 74 74 73 73 74 76 74
18 18 21 21 20 22 23 21 20 19 23 25 25 30 36 36 37 38 31 40 38 34 39 44 39 43 42 39 57 57 56 56 57 58 60 62 63 64 64 65 66 66 66 67 65 63 63 63 64 64 64 65 65 65 67 70 70 71 71 71 72 72 73 72 72 72 72 73 73 74 74 74 73 71 71 71 71 71 73 74 74 74 74 73 72 73
21 17 18 21 21 23 25 20 19 21 25 18 17 38 29 34 31 37 38 34 35 33 35 41 44 44 45 43 53 56 56 56 58 59 60 61 62 62 64 66 66 67 67 67 66 64 63 63 63 64 65 66 67 67 68 69 70 70 71 71 72 72 71 71 70 71 72 72 71 71 72 72 73 72 72 72 73 73 72 71 72 72 73 72 75 76
24 18 19 22 21 22 23 21 21 18 23 24 29 31 26 30 34 34 30 38 33 34 34 37 43 41 48 46 51 56 58 58 58 59 59 61 61 62 63 66 66 66 67 69 69 67 65 63 64 64 65 66 67 67 67 68 67 67 69 70 71 72 72 71 71 72 72 71 71 71 72 73 74 75 73 74 74 72 71 72 71 72 71 72 73 74
24 29 20 20 23 22 22 23 20 20 20 20 23 26 23 27 28 32 37 37 32 38 34 32 36 40 49 53 58 58 59 59 59 59 60 61 61 62 63 65 66 66 66 66 68 69 69 69 67 65 66 66 66 67 67 67 67 68 68 69 71 71 70 70 70 72 72 71 72 73 72 71 72 72 72 72 73 72 72 73 73 72 72 74 74 74
27 26 23 27 20 20 21 22 22 21 21 20 20 24 21 25 28 25 29 39 41 35 36 34 31 44 48 55 56 57 59 60 60 60 61 61 61 62 63 63 66 65 66 67 68 68 68 69 70 70 66 65 65 67 67 66 68 69 68 68 69 68 70 71 71 73 73 73 73 72 72 72 72 71 72 71 72 72 72 72 73 74 75 73 74 74
34 33 29 26 21 20 22 26 29 26 23 22 20 20 22 23 28 23 25 35 41 43 42 43 35 45 53 55 57 58 60 61 61 61 61 62 62 63 63 63 65 66 67 69 69 70 71 72 72 70 68 67 66 68 68 68 68 69 70 70 70 70 72 72 73 73 74 74 74 74 73 73 73 72 71 70 70 69 69 70 72 74 73 71 71 74
44 34 34 26 31 23 22 23 23 22 18 18 19 20 21 21 24 21 23 39 34 43 39 39 35 47 54 58 58 59 61 61 62 62 62 62 63 63 63 64 65 66 68 69 69 71 71 71 72 71 70 70 70 69 68 69 70 71 72 72 72 71 73 74 74 74 74 74 73 74 74 74 74 73 71 70 69 69 68 68 69 72 71 71 70 71
34 37 38 24 23 21 19 22 19 25 25 24 21 26 26 23 28 36 44 47 37 42 41 33 29 44 54 57 58 58 59 60 61 61 62 62 62 63 63 64 65 66 66 67 68 69 70 70 70 70 70 70 70 69 70 71 72 72 72 72 71 72 73 73 75 75 74 74 73 74 73 74 75 74 75 74 74 71 69 69 69 70 70 70 69 71
33 35 38 25 19 18 20 19 22 26 27 28 30 32 31 36 40 37 33 43 34 47 47 38 37 51 54 57 57 58 59 60 60 60 61 61 62 62 62 64 65 66 66 67 67 67 68 68 68 69 70 70 71 70 72 72 72 71 72 72 73 72 73 73 74 74 74 74 73 73 73 73 73 74 74 75 75 74 72 70 70 70 70 70 71 72
39 41 38 35 29 28 27 31 28 33 31 29 32 37 37 33 35 41 46 41 29 47 44 46 46 51 52 54 56 57 58 58 58 59 59 59 60 61 62 63 63 64 64 64 65 65 66 67 68 69 69 70 70 71 71 72 72 72 72 73 73 73 74 74 74 73 72 72 73 73 74 74 74 74 75 75 76 76 74 72 71 70 70 71 71 71
46 41 32 36 30 28 27 29 28 35 34 35 37 38 41 43 39 41 34 29 51 44 40 51 52 50 51 53 55 57 57 57 58 58 58 59 59 60 60 61 62 62 62 63 64 65 66 67 67 68 68 69 70 71 70 70 71 71 72 73 73 73 73 72 72 72 73 73 73 72 74 74 74 73 73 74 74 75 75 74 72 72 72 72 71 70
39 42 35 35 26 28 27 26 30 34 34 37 39 40 40 44 42 37 43 43 48 36 32 50 53 51 52 53 55 57 57 57 57 58 58 58 59 60 61 61 61 61 62 63 64 65 65 66 64 65 66 67 69 70 70 70 70 71 71 72 72 72 72 72 72 72 72 73 72 72 72 72 72 72 71 71 72 73 73 74 74 74 73 73 72 70
41 44 42 37 32 27 29 27 28 33 33 37 39 41 42 43 46 47 46 47 47 50 50 49 54 53 53 53 55 57 58 58 58 58 58 58 59 60 60 60 60 60 61 61 62 62 63 63 63 64 65 66 67 67 68 69 70 70 70 70 71 72 72 73 72 72 72 71 71 71 71 71 71 71 71 71 71 71 72 72 72 73 73 73 73 73
35 35 46 39 31 28 29 31 29 31 32 33 35 39 41 44 44 46 47 49 50 51 49 51 53 52 54 55 56 57 58 57 56 57 58 58 59 59 59 59 59 59 59 60 61 60 62 63 63 64 65 66 66 67 68 68 69 69 70 70 70 71 71 71 70 70 70 70 70 71 71 71 71 71 70 71 72 71 72 72 72 72 72 73 73 74
37 36 39 48 33 29 28 30 29 32 32 30 31 34 39 43 44 46 48 49 49 50 52 51 51 51 55 57 57 56 56 56 56 56 56 58 58 59 59 58 57 58 58 58 59 61 62 62 63 63 64 64 64 65 66 67 67 68 68 69 70 70 71 71 70 70 70 70 71 71 70 71 70 70 70 71 71 71 72 73 73 73 72 72 72 74
39 37 37 43 32 33 29 32 31 33 30 28 30 29 36 38 47 46 48 49 49 50 49 48 49 52 55 56 56 56 55 55 55 56 55 56 58 58 58 58 58 58 57 58 59 59 60 60 61 61 62 62 63 63 64 64 65 65 66 67 68 69 70 70 70 70 70 71 71 71 70 70 70 70 71 71 72 72 73 73 73 72 73 73 73 73
42 37 35 40 35 38 31 35 36 32 28 30 30 32 37 32 42 47 47 48 49 50 49 51 51 54 55 56 55 55 55 54 54 54 55 56 55 55 56 56 56 57 57 57 57 57 58 60 61 61 60 60 61 61 62 63 63 62 62 61 62 64 64 65 66 66 67 68 68 69 70 71 71 70 70 71 72 72 72 72 71 72 72 73 73 73
38 40 37 40 37 38 41 36 28 28 29 34 33 34 35 32 30 47 48 48 49 51 52 52 52 54 55 56 55 55 55 53 52 52 51 52 55 54 54 53 54 55 56 56 56 55 59 60 60 60 60 59 59 57 57 57 57 57 57 58 59 60 62 62 62 63 62 63 63 64 64 63 64 65 67 68 69 70 69 70 69 70 71 70 71 71
33 37 39 35 35 35 40 37 27 28 36 36 34 38 39 32 30 43 46 47 49 50 51 51 53 54 55 54 55 55 53 50 49 50 50 50 52 53 53 52 53 53 55 55 55 57 58 57 59 59 59 58 57 56 55 55 55 55 55 56 57 58 59 60 61 61 61 60 60 61 60 61 62 63 63 64 65 67 68 68 68 69 70 70 71 72
38 40 36 30 33 31 33 35 31 39 34 35 36 37 36 36 34 36 41 44 49 49 50 52 53 54 53 53 52 50 50 50 49 48 47 48 49 49 50 50 51 52 52 53 53 55 57 57 57 56 57 56 56 56 56 57 55 54 54 56 55 58 58 57 58 59 60 60 61 61 59 60 61 62 62 63 62 63 64 65 66 68 69 69 70 69
40 31 36 33 31 36 30 28 29 28 28 32 36 38 41 42 39 35 38 43 50 49 49 53 53 53 52 51 51 51 51 51 49 49 47 47 48 47 48 48 49 51 51 52 54 55 56 56 56 55 54 54 55 56 56 57 57 57 57 56 57 56 57 56 56 57 58 59 61 61 61 62 61 61 61 62 62 62 63 63 65 66 68 69 68 68
35 40 40 31 31 30 32 28 28 27 33 37 38 39 40 40 41 38 40 34 47 50 49 51 53 52 52 51 50 52 52 51 50 50 47 47 46 46 46 47 47 49 51 52 53 53 55 56 55 54 54 54 54 56 56 55 56 56 55 56 57 57 57 58 57 56 56 57 59 60 59 60 61 60 61 61 62 62 63 63 63 65 67 68 67 67
35 32 33 29 32 30 30 28 27 31 34 38 40 40 39 41 39 39 26 26 44 48 48 50 52 52 52 52 52 53 52 50 50 49 47 46 48 49 50 48 49 50 50 51 53 55 57 58 56 54 53 53 54 53 54 54 54 55 55 54 52 53 54 56 59 58 56 56 56 58 58 59 60 60 60 61 61 61 62 63 62 63 63 64 65 66
33 31 30 23 23 25 27 26 31 34 36 40 40 41 41 45 37 32 28 34 42 47 49 50 51 53 53 52 52 53 55 58 57 55 49 54 54 53 54 53 52 50 50 51 54 57 55 55 53 53 52 54 54 53 54 54 54 54 56 55 54 54 54 56 57 58 59 57 54 54 55 59 59 58 58 59 60 60 61 62 61 62 61 59 59 61
31 35 35 34 26 22 22 21 21 25 34 39 42 45 47 38 29 30 39 45 45 46 51 49 49 50 51 52 53 52 54 56 55 50 51 53 53 50 50 48 49 51 52 55 56 55 53 53 54 53 52 54 53 53 53 54 55 55 55 53 53 53 54 56 56 57 56 56 56 56 55 56 57 58 57 59 59 60 59 60 61 60 58 57 60 61
27 25 25 26 29 28 27 22 21 23 36 40 44 43 45 36 37 41 44 46 46 44 50 50 50 50 50 50 49 51 52 52 53 50 50 50 50 49 50 50 52 51 52 53 53 53 52 52 51 51 51 50 51 51 51 53 55 55 54 54 54 54 55 55 55 55 55 56 55 56 56 57 57 57 58 58 58 57 57 57 58 59 61 61 61 61
35 23 26 30 33 24 21 20 22 35 40 44 44 38 43 44 45 47 45 43 47 45 48 51 51 51 50 50 48 49 50 51 49 48 48 48 48 51 51 52 52 52 51 50 50 51 51 52 52 51 52 52 54 54 54 55 55 55 54 55 56 54 54 54 55 55 55 55 54 53 53 54 53 54 54 55 56 56 57 57 58 58 59 60 60 59
36 34 34 27 34 33 30 33 38 42 43 44 45 45 45 46 46 47 47 44 45 46 48 50 52 52 52 50 49 49 49 49 46 46 46 47 50 48 50 51 51 51 50 51 50 52 51 51 51 50 50 51 53 54 56 55 54 54 54 56 57 56 54 53 53 53 53 53 53 53 52 53 53 53 53 53 53 55 54 56 57 57 58 58 58 58
42 42 43 40 36 40 40 41 42 43 44 45 45 47 46 46 45 46 45 44 46 46 47 52 53 52 52 51 49 49 48 47 45 43 46 47 48 50 52 51 52 53 52 51 51 52 51 50 49 49 49 50 51 52 54 53 53 54 55 56 56 55 56 55 54 54 54 54 55 54 52 51 50 52 52 53 53 55 54 54 54 55 55 55 55 56
42 42 40 35 41 34 32 41 44 44 45 46 46 46 48 48 46 46 47 47 47 47 51 53 53 54 52 52 51 50 48 47 47 46 47 48 50 51 50 51 52 52 51 51 53 52 51 50 49 49 49 49 49 48 49 52 53 55 56 55 53 54 55 54 54 54 54 54 53 54 55 54 52 51 52 52 51 50 51 51 51 52 53 53 52 52
37 44 40 40 39 34 37 41 43 44 46 46 46 45 44 45 46 47 47 46 48 49 51 52 52 53 52 50 51 50 48 48 49 50 50 51 51 51 51 52 52 52 53 53 53 54 54 53 52 51 50 51 51 51 50 51 51 53 53 52 51 51 53 53 51 50 51 50 51 50 50 50 52 50 49 49 48 48 48 48 48 48 50 50 50 50
44 43 35 42 37 40 41 42 42 44 43 44 45 46 47 46 47 48 47 46 44 46 48 49 49 51 51 51 51 50 48 48 48 49 48 51 52 52 53 53 53 53 53 52 52 53 53 53 51 51 49 49 50 51 51 52 52 52 53 53 53 53 52 51 51 51 48 48 48 49 51 48 48 47 48 48 49 49 51 51 50 50 50 51 52 51
41 38 40 39 37 36 35 39 44 37 37 41 43 45 47 48 49 49 49 46 45 45 47 47 48 49 50 50 51 50 50 50 50 50 50 50 51 52 53 53 53 53 53 53 54 53 54 54 53 52 51 51 52 51 51 51 51 51 48 49 50 51 52 51 50 49 49 49 49 48 48 48 46 48 48 46 46 49 50 52 51 51 52 50 53 52
40 44 39 37 36 33 39 45 48 46 46 45 45 45 47 49 49 48 48 48 48 46 47 47 47 48 49 50 49 49 51 50 50 50 51 51 51 52 53 53 52 52 52 52 51 52 54 53 53 53 52 51 52 50 51 52 51 51 49 51 50 50 51 51 49 48 48 50 50 50 49 48 48 50 51 50 49 49 50 49 52 47 47 49 52 48